TimePST,TemperatureF,Dew PointF,Humidity,Sea Level PressureIn,VisibilityMPH,Wind Direction,Wind SpeedMPH,Gust SpeedMPH,PrecipitationIn,Events,Conditions,WindDirDegrees,DateUTC
12:56 AM,30.0,10.9,45,29.80,10.0,Calm,Calm,-,N/A,,Clear,0,2013-03-07 08:56:00
1:56 AM,28.9,10.9,47,29.80,10.0,Calm,Calm,-,N/A,,Mostly Cloudy,0,2013-03-07 09:56:00
2:56 AM,30.0,12.0,47,29.78,10.0,Calm,Calm,-,N/A,,Partly Cloudy,0,2013-03-07 10:56:00
3:56 AM,28.0,12.9,53,29.79,10.0,NW,3.5,-,N/A,,Mostly Cloudy,320,2013-03-07 11:56:00
4:56 AM,28.9,12.0,49,29.82,10.0,Calm,Calm,-,N/A,,Overcast,0,2013-03-07 12:56:00
5:56 AM,33.1,15.1,48,29.83,10.0,Calm,Calm,-,N/A,,Mostly Cloudy,0,2013-03-07 13:56:00
6:56 AM,33.1,14.0,46,29.84,10.0,NE,3.5,-,N/A,,Overcast,40,2013-03-07 14:56:00
7:56 AM,39.9,18.0,41,29.83,10.0,Calm,Calm,-,N/A,,Overcast,0,2013-03-07 15:56:00
8:56 AM,45.0,21.0,39,29.83,10.0,Variable,4.6,-,N/A,,Mostly Cloudy,0,2013-03-07 16:56:00
9:56 AM,48.9,24.1,38,29.81,10.0,SSE,15.0,21.9,N/A,,Partly Cloudy,150,2013-03-07 17:56:00
10:56 AM,51.1,21.9,32,29.79,10.0,SSE,13.8,18.4,N/A,,Mostly Cloudy,160,2013-03-07 18:56:00
11:56 AM,53.1,21.0,29,29.76,10.0,South,20.7,26.5,N/A,,Mostly Cloudy,170,2013-03-07 19:56:00
12:56 PM,52.0,21.9,31,29.75,10.0,SE,19.6,27.6,N/A,,Mostly Cloudy,140,2013-03-07 20:56:00
1:56 PM,55.0,21.9,28,29.73,10.0,South,19.6,29.9,N/A,,Mostly Cloudy,170,2013-03-07 21:56:00
2:56 PM,53.1,21.9,30,29.72,10.0,SSE,19.6,26.5,N/A,,Partly Cloudy,160,2013-03-07 22:56:00
3:56 PM,53.1,19.9,27,29.71,10.0,SSE,18.4,27.6,N/A,,Partly Cloudy,150,2013-03-07 23:56:00
4:56 PM,52.0,21.0,30,29.71,10.0,SSE,21.9,27.6,N/A,,Clear,160,2013-03-08 00:56:00
5:56 PM,48.0,24.1,39,29.73,10.0,SSE,13.8,21.9,N/A,,Clear,160,2013-03-08 01:56:00
6:56 PM,46.0,26.1,46,29.74,10.0,SSE,18.4,28.8,N/A,,Mostly Cloudy,150,2013-03-08 02:56:00
7:56 PM,45.0,28.0,52,29.74,10.0,SSE,20.7,28.8,N/A,,Overcast,150,2013-03-08 03:56:00
8:56 PM,43.0,28.9,58,29.75,10.0,SE,19.6,31.1,0.00,Rain,Light Rain,140,2013-03-08 04:56:00
9:23 PM,42.8,30.2,61,29.80,10.0,SE,13.8,23.0,0.00,,Overcast,130,2013-03-08 05:23:00
9:30 PM,42.8,30.2,61,29.80,10.0,ESE,12.7,-,0.00,,Overcast,120,2013-03-08 05:30:00
9:56 PM,43.0,28.9,58,29.75,10.0,SSE,12.7,-,0.00,,Overcast,150,2013-03-08 05:56:00
10:56 PM,41.0,30.0,65,29.74,10.0,SSE,15.0,24.2,N/A,,Overcast,150,2013-03-08 06:56:00
11:56 PM,41.0,28.9,62,29.73,10.0,South,9.2,-,N/A,,Overcast,190,2013-03-08 07:56:00